This demonstration page uses our WeatherBlox Daily Observations layout. Learn more.

41.55636, -103.73856

Hourly Observations for August 14, 2016

Temp ( °F °C ) Dew Point ( °F °C ) Humidity (%) Winds ( mph kmh ) Pressure ( in mb ) Visibility ( mi km ) Precip ( " mm )
12:53 am 00:53 Clear 61 16.1 55 12.8 81 81 E 5 7 30.05 1018 10 16.0934 0 0
1:53 am 01:53 Clear 60 15.6 55 12.8 84 84 E 6 9 30.04 1017 10 16.0934 0 0
2:53 am 02:53 Clear 59 15 54 12.2 83 83 E 3 6 30.03 1017 10 16.0934 0 0
3:53 am 03:53 Clear 57 13.9 54 12.2 90 90 E 6 9 30.04 1017 10 16.0934 0 0
4:53 am 04:53 Clear 57 13.9 53 11.7 87 87 E 5 7 30.04 1017 10 16.0934 0 0
5:53 am 05:53 Clear 56 13.3 52 11.1 87 87 ENE 5 7 30.04 1017 10 16.0934 0 0
6:53 am 06:53 Sunny 59 15 54 12.2 83 83 Calm 30.05 1018 10 16.0934 0 0
7:53 am 07:53 Sunny 63 17.2 55 12.8 76 76 E 7 11 30.05 1018 10 16.0934 0 0
8:53 am 08:53 Sunny 67 19.4 56 13.3 68 68 ESE 8 13 30.04 1017 10 16.0934 0 0
9:53 am 09:53 Sunny 73 22.8 54 12.2 51 51 ESE 7 11 30.01 1016 10 16.0934 0 0
10:53 am 10:53 Sunny 78 25.6 54 12.2 43 43 SE 7 11 30 1016 10 16.0934 0 0
11:53 am 11:53 Sunny 81 27.2 57 13.9 44 44 E 14 22 29.98 1015 10 16.0934 0 0
12:53 pm 12:53 Sunny 85 29.4 58 14.4 40 40 E 12 19 29.94 1014 10 16.0934 0 0
1:53 pm 13:53 Sunny 88 31.1 55 12.8 33 33 E 12 19 29.92 1013 10 16.0934 0 0
2:53 pm 14:53 Sunny 88 31.1 53 11.7 30 30 ENE 9 15 29.9 1012 10 16.0934 0 0
3:53 pm 15:53 Sunny 91 32.8 47 8.3 22 22 SE 14 22 29.87 1011 10 16.0934 0 0
4:53 pm 16:53 Sunny 90 32.2 47 8.3 23 23 SE 17 28 29.85 1011 10 16.0934 0 0
5:53 pm 17:53 Sunny 88 31.1 48 8.9 25 25 SE 15 24 29.85 1011 10 16.0934 0 0
6:53 pm 18:53 Sunny 85 29.4 49 9.4 29 29 SSE 15 24 29.84 1011 10 16.0934 0 0
7:53 pm 19:53 Sunny 79 26.1 48 8.9 34 34 SE 9 15 29.85 1011 10 16.0934 0 0
8:53 pm 20:53 Clear 70 21.1 55 12.8 59 59 E 7 11 29.88 1012 10 16.0934 0 0
9:53 pm 21:53 Clear 69 20.6 53 11.7 57 57 ESE 10 17 29.88 1012 10 16.0934 0 0
10:53 pm 22:53 Clear 65 18.3 55 12.8 70 70 E 8 13 29.88 1012 10 16.0934 0 0
11:53 pm 23:53 Clear 76 24.4 47 8.3 36 36 SSE 10 17 29.84 1011 10 16.0934 0 0

Powered by AerisWeather